User: anonymous   Login
Location: Unspecified
(0.0000°N, 0.0000°E)
Time: 16:43:04
(UTC+00:00)
Language:

NOSS 7 (E) - Orbit

View from above orbital plane
View from above orbital plane
View from above satellite
View from above satellite

Ground track
Ground track

The orbit data is extracted from the following two-line orbital elements,

1 16624U 86014E   17082.91991228 0.00000450  00000-0  59658-4 0    06
2 16624  63.3130  55.6873 0879000  55.4792 304.5208 13.45315743    05
Epoch (UTC): 23 March 2017 22:04:40
Eccentricity: 0.0879000
inclination: 63.3130°
perigee height: 433 km
apogee height: 1746 km
right ascension of ascending node: 55.6873°
argument of perigee: 55.4792°
revolutions per day: 13.45315743
mean anomaly at epoch: 304.5208°
orbit number at epoch: 0

The dashed part of the orbit path shows where the satellite is in the earth's shadow,  

DLR